Temp
-9 -8 -7 -7 -7 -7 -7 -7 -7 -7 -7 -7 -7 -7 -7 -7 -6 -7 -7 -6 -6 -6 -6 -6 -7 -7 -7 -7 -7 -7 -7 -7 -7 -7 -7 -7 -7 -7 -7 -7 -6 -7 -7
-8 -8 -7 -7 -7 -7 -7 -7 -7 -7 -7 -7 -7 -7 -8 -7 -7 -7 -7 -7 -7 -6 -6 -6 -6 -7 -8 -7 -7 -7 -7 -7 -8 -7 -7 -7 -7 -7 -7 -7 -7 -7 -8
-8 -8 -8 -7 -7 -7 -7 -7 -7 -7 -8 -8 -8 -8 -8 -8 -7 -8 -7 -7 -7 -7 -6 -6 -6 -7 -7 -8 -8 -7 -7 -7 -7 -7 -7 -7 -7 -7 -7 -7 -7 -7 -8
-8 -8 -8 -8 -8 -8 -8 -7 -7 -7 -7 -8 -8 -8 -8 -9 -8 -8 -8 -7 -7 -7 -7 -7 -6 -6 -6 -7 -7 -7 -7 -7 -8 -7 -7 -7 -7 -7 -7 -7 -7 -8 -8
-9 -8 -8 -9 -9 -9 -8 -8 -8 -8 -7 -7 -7 -8 -8 -8 -8 -8 -8 -8 -8 -8 -7 -7 -8 -7 -7 -7 -8 -7 -7 -8 -8 -8 -7 -7 -7 -7 -7 -8 -8 -8 -8
-8 -8 -8 -8 -8 -8 -8 -8 -8 -8 -7 -7 -7 -8 -8 -8 -8 -8 -8 -8 -8 -8 -8 -8 -8 -8 -8 -7 -7 -8 -8 -8 -7 -7 -8 -8 -8 -8 -8 -8 -8 -8 -8
-7 -7 -8 -8 -8 -8 -8 -8 -8 -8 -8 -8 -8 -8 -8 -9 -8 -8 -8 -8 -8 -8 -8 -8 -8 -8 -8 -8 -8 -8 -7 -8 -8 -8 -8 -8 -8 -8 -8 -8 -8 -8 -8
-7 -7 -7 -7 -8 -8 -9 -9 -9 -9 -8 -8 -8 -9 -8 -8 -8 -9 -8 -8 -8 -8 -8 -9 -8 -8 -8 -8 -8 -8 -8 -8 -8 -8 -8 -8 -8 -8 -8 -8 -8 -8 -9
-7 -7 -7 -7 -7 -7 -7 -8 -8 -8 -8 -8 -8 -9 -8 -9 -9 -8 -8 -8 -8 -8 -8 -8 -9 -9 -8 -8 -9 -9 -8 -8 -8 -8 -9 -9 -8 -8 -8 -8 -9 -9 -8
-6 -6 -7 -6 -6 -6 -7 -7 -7 -7 -7 -7 -7 -8 -8 -8 -8 -8 -8 -8 -8 -8 -7 -8 -9 -9 -9 -8 -8 -8 -8 -8 -8 -9 -9 -9 -8 -8 -8 -9 -8 -9 -9
-6 -6 -6 -6 -6 -7 -7 -7 -7 -7 -7 -7 -7 -7 -7 -7 -8 -8 -9 -9 -9 -8 -8 -7 -8 -9 -9 -9 -8 -8 -9 -9 -9 -9 -9 -9 -9 -9 -8 -9 -9 -10 -10
-6 -6 -6 -6 -6 -6 -7 -7 -7 -7 -7 -7 -7 -7 -7 -7 -7 -8 -8 -9 -9 -8 -8 -8 -8 -9 -9 -9 -8 -8 -9 -9 -9 -9 -9 -9 -9 -9 -9 -10 -10 -10 -11
-6 -6 -6 -6 -6 -6 -6 -7 -7 -7 -7 -7 -7 -7 -7 -7 -7 -8 -8 -8 -8 -7 -8 -9 -9 -9 -9 -9 -8 -9 -9 -9 -9 -9 -9 -9 -9 -9 -9 -10 -10 -11 -12
-6 -6 -6 -6 -7 -7 -7 -7 -7 -7 -7 -7 -7 -7 -8 -7 -7 -8 -8 -8 -8 -9 -8 -9 -9 -9 -9 -8 -9 -9 -9 -8 -9 -8 -8 -9 -9 -9 -10 -10 -10 -11 -11
-7 -7 -6 -7 -7 -7 -7 -7 -7 -7 -7 -7 -7 -7 -8 -8 -8 -8 -8 -8 -9 -9 -9 -9 -9 -9 -8 -8 -8 -9 -9 -9 -9 -8 -8 -9 -9 -9 -10 -10 -11 -11 -12
-7 -6 -6 -6 -6 -6 -6 -6 -6 -7 -7 -7 -7 -8 -8 -8 -8 -8 -9 -8 -9 -9 -9 -9 -9 -9 -9 -9 -9 -9 -9 -9 -9 -8 -8 -9 -9 -9 -10 -11 -11 -12 -12
-7 -7 -6 -7 -7 -7 -7 -7 -7 -7 -7 -7 -7 -8 -8 -8 -8 -8 -8 -8 -9 -9 -9 -9 -9 -9 -10 -9 -9 -10 -10 -9 -9 -9 -8 -9 -9 -10 -11 -10 -11 -12 -12
-7 -7 -7 -7 -7 -6 -6 -8 -8 -8 -7 -8 -7 -8 -8 -8 -8 -9 -8 -8 -8 -9 -10 -9 -9 -9 -9 -9 -10 -10 -10 -9 -9 -9 -9 -9 -10 -10 -10 -10 -11 -12 -12
-7 -7 -7 -7 -7 -8 -7 -8 -7 -8 -11 -9 -8 -8 -9 -9 -9 -8 -9 -8 -8 -9 -10 -9 -9 -9 -9 -9 -10 -10 -10 -9 -9 -9 -9 -10 -10 -10 -10 -10 -11 -12 -12
-7 -7 -7 -8 -8 -9 -8 -9 -8 -9 -10 -9 -9 -9 -9 -9 -8 -8 -8 -9 -9 -10 -9 -9 -9 -9 -9 -9 -10 -11 -10 -10 -9 -9 -10 -10 -10 -10 -10 -10 -12 -13 -12
-8 -8 -8 -8 -9 -9 -9 -9 -9 -9 -10 -10 -10 -10 -9 -9 -8 -8 -9 -7 -8 -9 -10 -9 -9 -8 -9 -9 -10 -10 -10 -9 -9 -10 -10 -9 -9 -9 -10 -11 -12 -12 -12
-8 -9 -8 -9 -10 -9 -9 -9 -10 -10 -11 -10 -10 -10 -9 -9 -8 -8 -8 -8 -8 -8 -9 -9 -9 -9 -10 -10 -10 -10 -10 -9 -9 -10 -10 -9 -9 -9 -10 -11 -12 -12 -13
-9 -8 -8 -9 -9 -9 -9 -10 -10 -10 -10 -10 -9 -9 -8 -8 -7 -7 -8 -8 -8 -8 -9 -9 -9 -9 -10 -10 -11 -10 -10 -9 -10 -10 -9 -9 -9 -10 -11 -12 -12 -12 -13
-9 -9 -9 -9 -9 -10 -9 -10 -10 -10 -10 -9 -9 -9 -9 -9 -8 -8 -8 -8 -8 -8 -9 -8 -9 -9 -10 -9 -10 -10 -10 -10 -10 -10 -10 -9 -10 -10 -11 -12 -12 -13 -13
-9 -9 -9 -10 -10 -10 -10 -10 -11 -10 -10 -9 -9 -9 -9 -9 -8 -8 -8 -8 -8 -9 -9 -9 -9 -9 -10 -10 -10 -10 -10 -10 -10 -10 -10 -10 -9 -10 -11 -12 -12 -13 -13
-9 -9 -9 -10 -10 -10 -10 -11 -10 -10 -10 -10 -9 -9 -9 -8 -8 -8 -9 -8 -8 -8 -9 -9 -10 -10 -10 -10 -10 -10 -10 -10 -10 -10 -10 -10 -10 -11 -11 -11 -12 -13 -13
Height
5927 5929 5929 5930 5930 5930 5930 5930 5929 5929 5928 5927 5926 5924 5921 5920 5918 5916 5914 5913 5912 5911 5909 5907 5905 5905 5907 5909 5909 5910 5911 5910 5909 5909 5908 5906 5905 5904 5903 5902 5900 5898 5896
5926 5927 5928 5928 5928 5928 5929 5929 5929 5927 5926 5925 5924 5922 5921 5918 5916 5915 5913 5912 5910 5909 5907 5904 5902 5901 5902 5904 5905 5905 5905 5905 5905 5906 5904 5903 5902 5900 5898 5896 5894 5892 5891
5925 5925 5926 5926 5927 5926 5926 5927 5926 5925 5923 5922 5921 5919 5918 5917 5916 5914 5912 5910 5908 5906 5904 5902 5899 5897 5896 5900 5901 5901 5900 5899 5899 5899 5900 5898 5897 5895 5893 5891 5888 5886 5885
5923 5923 5924 5923 5923 5923 5923 5922 5922 5920 5919 5918 5916 5915 5914 5914 5912 5911 5910 5909 5906 5904 5902 5900 5897 5894 5893 5895 5898 5897 5896 5894 5893 5893 5893 5893 5892 5891 5889 5887 5885 5881 5878
5919 5919 5918 5917 5917 5916 5918 5918 5917 5916 5915 5913 5912 5910 5909 5908 5907 5907 5906 5905 5903 5902 5900 5897 5895 5892 5891 5890 5892 5893 5893 5891 5890 5888 5887 5886 5886 5884 5883 5881 5879 5877 5873
5914 5914 5913 5912 5912 5912 5911 5911 5912 5912 5911 5909 5908 5907 5906 5905 5903 5901 5900 5900 5899 5898 5897 5895 5892 5890 5889 5888 5888 5887 5887 5886 5886 5885 5884 5881 5880 5879 5878 5876 5874 5871 5868
5909 5909 5909 5908 5907 5907 5905 5905 5905 5906 5905 5904 5904 5903 5902 5900 5899 5898 5896 5894 5893 5892 5892 5892 5890 5887 5885 5884 5883 5884 5884 5883 5882 5881 5880 5879 5877 5874 5872 5870 5867 5864 5860
5902 5904 5904 5904 5903 5902 5902 5901 5900 5898 5898 5900 5898 5897 5896 5894 5893 5892 5892 5890 5888 5887 5884 5884 5884 5885 5883 5879 5878 5880 5880 5879 5879 5877 5876 5874 5872 5870 5869 5865 5861 5858 5853
5896 5896 5896 5897 5897 5896 5896 5893 5895 5893 5892 5892 5892 5890 5886 5887 5885 5885 5884 5882 5880 5880 5881 5879 5877 5878 5879 5877 5873 5873 5874 5873 5871 5870 5870 5867 5866 5865 5862 5860 5855 5850 5845
5892 5892 5891 5890 5889 5889 5889 5888 5888 5887 5886 5886 5885 5884 5883 5881 5878 5875 5872 5872 5867 5870 5874 5870 5871 5871 5870 5872 5869 5869 5868 5866 5865 5864 5863 5860 5859 5858 5855 5852 5847 5842 5835
5885 5885 5884 5883 5882 5881 5880 5878 5878 5878 5878 5878 5878 5877 5874 5871 5869 5866 5865 5858 5854 5855 5860 5862 5862 5864 5862 5865 5864 5862 5860 5860 5859 5857 5856 5854 5853 5852 5848 5845 5841 5836 5830
5877 5876 5875 5874 5873 5872 5872 5870 5869 5869 5869 5869 5869 5868 5864 5862 5861 5859 5855 5853 5848 5847 5846 5851 5855 5857 5854 5855 5857 5857 5854 5852 5851 5850 5850 5849 5848 5846 5842 5839 5834 5828 5822
5869 5868 5867 5865 5863 5861 5861 5860 5859 5857 5858 5858 5857 5858 5855 5853 5852 5849 5846 5843 5839 5834 5834 5838 5844 5847 5847 5845 5849 5851 5849 5846 5843 5844 5845 5844 5842 5840 5836 5833 5827 5821 5812
5860 5860 5859 5857 5856 5855 5853 5852 5850 5849 5847 5846 5845 5845 5844 5842 5841 5839 5835 5834 5832 5829 5830 5831 5835 5838 5839 5837 5841 5844 5842 5840 5838 5838 5840 5838 5836 5834 5830 5826 5819 5812 5805
5853 5850 5850 5849 5848 5846 5845 5844 5842 5839 5837 5835 5836 5836 5834 5832 5830 5828 5826 5824 5823 5823 5823 5825 5827 5829 5830 5830 5832 5835 5835 5833 5830 5832 5832 5831 5829 5828 5823 5817 5811 5806 5799
5842 5843 5843 5841 5838 5836 5834 5833 5831 5830 5827 5825 5823 5821 5822 5822 5819 5817 5816 5816 5815 5814 5815 5817 5818 5819 5820 5821 5823 5826 5826 5826 5824 5825 5825 5823 5822 5819 5813 5811 5806 5799 5793
5834 5832 5832 5829 5826 5823 5820 5818 5816 5813 5813 5813 5810 5809 5809 5808 5809 5807 5806 5806 5806 5805 5807 5807 5810 5812 5812 5813 5815 5818 5818 5818 5819 5818 5818 5816 5815 5811 5809 5804 5799 5792 5786
5821 5820 5816 5813 5808 5806 5804 5800 5797 5795 5793 5794 5793 5793 5794 5794 5794 5794 5793 5793 5795 5798 5798 5798 5801 5802 5803 5806 5807 5809 5811 5813 5812 5813 5812 5810 5809 5805 5802 5797 5792 5786 5781
5809 5806 5801 5797 5792 5789 5785 5785 5782 5777 5771 5775 5774 5776 5776 5778 5779 5778 5777 5779 5784 5788 5788 5791 5792 5794 5795 5795 5797 5800 5804 5806 5806 5807 5805 5806 5803 5800 5796 5790 5786 5781 5775
5795 5791 5787 5783 5779 5776 5772 5768 5763 5758 5756 5759 5761 5760 5759 5760 5762 5762 5759 5761 5768 5774 5775 5779 5781 5783 5785 5787 5789 5793 5796 5798 5798 5798 5799 5799 5796 5794 5789 5783 5779 5775 5770
5780 5777 5773 5770 5765 5762 5758 5753 5748 5741 5741 5743 5742 5742 5743 5740 5742 5743 5741 5725 5740 5755 5762 5767 5771 5774 5777 5779 5782 5785 5786 5789 5791 5791 5793 5792 5790 5786 5781 5777 5775 5771 5764
5767 5764 5761 5758 5753 5751 5747 5742 5736 5733 5732 5731 5729 5729 5727 5725 5724 5725 5725 5715 5734 5738 5749 5756 5760 5765 5768 5771 5774 5777 5779 5782 5784 5785 5785 5784 5782 5778 5775 5772 5769 5764 5759
5754 5752 5748 5746 5741 5737 5733 5728 5724 5722 5719 5718 5715 5713 5710 5708 5708 5710 5713 5712 5726 5735 5739 5745 5751 5755 5759 5764 5768 5768 5770 5773 5775 5777 5777 5776 5773 5771 5769 5767 5763 5759 5755
5744 5741 5738 5734 5731 5726 5722 5718 5714 5712 5710 5706 5702 5699 5696 5693 5693 5697 5703 5710 5716 5720 5730 5736 5742 5747 5753 5756 5759 5761 5763 5766 5767 5768 5770 5769 5766 5766 5764 5761 5757 5754 5749
5735 5731 5727 5723 5720 5715 5710 5708 5704 5703 5701 5697 5694 5689 5685 5686 5690 5691 5697 5703 5711 5717 5724 5728 5734 5740 5745 5749 5751 5754 5757 5758 5759 5760 5762 5761 5760 5758 5757 5754 5751 5748 5744
5724 5719 5715 5711 5707 5702 5698 5697 5695 5695 5693 5691 5687 5683 5682 5682 5684 5690 5696 5701 5707 5711 5717 5724 5730 5734 5738 5742 5745 5747 5748 5750 5750 5752 5754 5754 5753 5751 5750 5748 5745 5742 5738
Wind_Speed
11 8 8 10 11 10 9 7 5 6 6 6 8 9 11 12 10 9 6 3 2 5 10 12 16 15 13 10 10 6 9 12 12 10 11 11 12 12 12 13 14 15 16
15 12 12 14 12 12 7 5 6 9 10 9 10 11 6 6 7 7 8 6 6 6 8 9 10 14 17 10 5 8 7 11 12 11 12 11 13 14 14 16 16 17 17
15 17 17 18 16 15 13 10 11 10 11 13 13 12 10 9 7 7 6 7 7 6 6 7 10 10 12 15 9 10 12 12 10 11 11 13 13 14 15 17 19 20 21
12 17 20 21 21 20 18 16 15 17 17 15 12 10 11 11 13 12 10 7 8 7 6 8 7 5 4 11 13 12 13 12 12 12 13 14 13 16 18 20 21 22 24
13 14 17 21 24 25 23 21 20 21 20 15 14 14 13 13 13 15 17 16 13 11 9 5 4 5 2 3 9 11 13 13 13 14 14 14 16 19 20 20 21 22 25
17 18 18 19 21 25 27 28 26 23 22 17 16 18 20 20 19 19 19 21 22 17 15 13 10 7 6 6 8 11 12 14 15 15 16 17 18 20 20 20 20 22 27
17 18 18 18 19 22 28 30 29 27 23 25 22 22 24 26 27 26 24 24 24 22 18 17 16 13 10 8 8 9 11 13 14 15 15 16 19 18 20 21 24 26 30
14 16 16 19 22 23 26 29 28 31 24 25 28 31 31 29 28 32 27 29 27 24 18 18 18 18 16 10 8 10 11 12 12 13 16 18 19 19 20 23 27 30 33
14 14 14 16 17 21 23 28 28 30 30 29 31 33 29 29 29 35 35 36 32 32 28 22 17 18 23 19 10 11 12 10 12 14 16 17 18 19 22 27 30 34 37
14 15 16 16 17 20 22 25 25 26 26 28 29 29 31 34 35 40 44 49 34 40 37 28 24 23 23 25 17 14 13 11 13 13 14 16 18 20 25 29 33 37 41
19 18 19 19 20 20 20 22 23 23 23 24 25 26 30 31 33 37 38 45 47 41 37 36 34 29 23 25 21 19 16 14 13 12 13 16 20 22 26 31 35 38 40
24 25 26 26 26 27 26 27 28 28 26 26 24 24 29 30 28 33 39 42 40 37 47 44 32 27 21 22 24 22 19 15 11 10 13 16 20 24 28 32 36 39 41
23 25 27 29 32 32 31 31 31 32 30 29 28 26 29 31 31 34 38 38 36 30 36 33 31 26 24 19 26 24 17 14 10 11 15 16 19 25 29 32 36 39 40
29 28 28 29 30 29 32 33 33 33 33 31 30 29 30 31 32 34 37 34 29 25 32 28 31 27 19 18 27 25 19 15 10 12 17 17 20 26 30 34 38 40 44
31 34 34 34 35 37 37 37 38 40 40 38 35 34 32 30 33 33 32 34 31 31 25 31 34 26 23 23 27 25 20 16 11 14 17 18 22 27 30 35 39 41 41
34 33 33 36 39 41 43 44 44 43 44 43 42 39 33 32 31 34 32 33 32 31 28 26 28 28 26 23 26 25 19 17 14 16 17 20 25 27 31 36 37 37 40
37 39 39 41 43 47 49 50 52 53 55 51 45 42 40 36 33 35 36 33 35 36 29 29 25 22 24 24 26 24 21 16 18 18 19 21 25 26 32 35 35 37 40
40 41 44 46 50 52 53 50 45 53 62 59 55 46 41 41 37 37 40 39 36 35 36 26 26 28 26 25 25 23 19 22 21 19 20 22 24 26 32 34 36 36 39
43 44 48 48 47 41 38 44 50 54 51 50 46 45 44 41 40 40 43 45 40 35 41 31 28 26 34 31 30 23 24 25 21 21 18 23 23 28 31 32 34 36 37
47 48 46 43 44 45 49 45 48 57 48 50 48 45 44 44 45 44 47 49 49 38 41 33 30 29 27 32 30 24 27 22 22 19 20 24 24 28 29 32 33 34 35
48 47 43 41 42 37 37 36 35 30 36 46 44 44 46 46 45 45 49 47 44 37 46 35 31 29 31 29 28 28 24 22 20 19 23 22 26 27 29 30 31 30 34
45 41 40 37 36 39 36 35 30 27 31 36 38 43 44 45 45 44 43 43 37 40 33 34 32 30 30 35 31 30 24 22 22 21 23 23 25 25 27 29 29 28 31
36 32 31 32 36 38 37 32 34 31 30 34 34 35 39 42 40 41 35 43 36 38 34 37 37 33 34 36 32 30 25 24 22 21 23 24 25 26 26 27 26 26 27
34 32 34 34 34 37 35 31 28 26 30 32 31 29 30 22 22 29 43 33 38 36 35 32 34 38 34 31 33 28 25 24 22 22 24 24 24 25 25 25 24 25 25
33 33 34 35 38 40 39 34 31 30 28 29 28 25 19 25 20 27 31 36 33 30 33 31 35 35 35 33 30 28 26 24 23 24 25 24 26 25 25 24 24 24 24
35 37 38 39 39 39 38 30 28 28 24 26 18 12 14 17 26 26 29 28 26 25 27 31 35 35 32 29 28 28 26 25 23 24 25 25 25 24 24 25 23 23 23
Wind_Direction
251 248 247 261 272 277 285 247 292 315 319 346 6 24 39 42 44 51 44 22 350 304 297 289 274 262 253 266 294 282 286 300 296 292 296 297 295 300 306 303 301 301 297
241 256 263 268 274 280 268 277 301 315 312 315 328 338 354 40 38 36 35 15 350 339 328 311 317 275 251 247 264 296 299 305 299 296 282 292 301 302 301 301 301 305 312
241 252 264 275 281 278 276 272 276 295 289 295 310 317 313 325 340 360 8 5 356 348 338 333 330 311 264 228 240 279 297 300 279 275 295 308 315 308 310 309 310 311 313
263 258 267 275 280 282 281 284 284 288 286 289 296 288 298 309 320 323 327 339 325 334 360 17 6 7 307 229 239 266 275 274 274 292 298 310 307 307 305 307 308 310 310
264 264 260 258 264 269 276 276 277 282 283 289 291 292 296 297 305 314 317 317 318 312 306 310 330 340 336 206 245 259 270 274 279 290 294 294 292 301 305 305 308 308 309
256 264 269 269 257 261 268 268 272 274 273 273 292 302 295 297 297 297 303 312 310 303 296 298 291 292 302 305 284 274 276 281 281 281 285 288 297 300 305 306 307 308 308
238 247 253 262 266 259 266 279 286 285 283 272 274 289 295 292 290 291 291 294 301 304 298 290 287 278 273 283 295 292 281 277 277 284 287 297 299 302 308 311 312 312 313
272 256 255 256 253 257 261 266 268 270 267 270 277 278 278 281 283 285 286 286 288 288 287 297 271 278 274 258 268 280 273 276 281 284 293 297 306 311 309 310 311 315 317
278 281 273 266 262 257 258 258 263 268 273 270 272 284 286 275 275 278 277 273 273 277 276 275 285 283 276 273 265 264 262 269 280 281 290 302 307 310 311 314 315 317 318
276 278 280 277 269 263 263 265 265 269 268 272 276 278 278 278 276 276 280 267 263 271 269 260 274 277 287 265 263 264 268 274 268 277 294 300 305 310 316 317 317 321 321
272 267 269 269 272 269 267 270 273 273 275 281 287 287 281 281 282 287 300 299 296 258 248 264 262 268 284 255 263 262 260 266 269 286 301 300 304 311 317 318 320 319 320
272 273 273 273 273 271 270 271 273 275 277 281 285 286 284 286 290 290 292 295 310 268 256 253 251 260 268 253 251 259 266 268 266 284 288 292 300 310 315 317 318 319 322
277 273 269 270 274 275 275 273 273 273 276 277 279 280 283 285 291 288 289 295 298 287 236 227 244 256 263 252 248 252 255 261 262 278 278 286 300 307 313 315 319 324 330
282 277 276 275 274 274 276 277 277 276 273 271 272 273 278 285 287 283 287 292 295 285 234 237 240 253 252 261 243 248 253 255 257 275 276 288 301 306 312 317 324 330 328
276 280 282 280 279 279 278 277 279 279 279 278 276 273 273 272 276 280 287 287 286 283 245 247 248 246 257 256 239 240 255 260 265 273 275 292 301 304 317 325 326 328 330
284 283 283 284 284 283 283 283 281 279 277 277 278 278 275 270 273 274 273 279 278 280 265 235 245 259 256 243 241 238 247 256 265 266 277 290 297 312 324 321 324 329 328
288 288 288 286 286 285 283 282 282 283 283 279 277 278 276 274 269 272 271 273 270 279 276 245 245 248 244 251 252 238 247 257 264 264 276 288 300 317 315 320 324 328 328
289 291 291 291 289 287 283 281 282 298 283 276 272 269 269 271 269 267 267 268 271 270 277 241 234 261 257 254 245 233 248 258 258 262 273 290 303 311 315 322 327 328 329
291 295 295 294 291 290 287 283 286 293 266 264 265 268 267 263 262 264 264 268 263 256 263 252 237 251 257 241 229 223 232 253 253 258 278 288 303 312 317 321 325 328 329
294 296 297 290 288 291 297 292 293 290 268 262 267 267 265 262 260 262 263 262 253 247 256 253 238 234 246 238 233 219 238 245 245 260 278 286 303 309 315 324 326 324 327
294 294 291 289 291 298 297 292 298 292 270 257 258 257 256 260 257 264 259 256 225 240 251 241 228 239 230 213 220 229 234 236 244 260 272 291 299 310 320 322 317 324 329
292 291 289 288 285 295 297 292 299 278 269 263 263 259 260 258 266 262 266 219 238 232 231 226 219 224 226 223 223 230 235 233 244 261 275 290 300 311 319 316 316 327 328
293 291 288 293 294 296 301 294 292 277 275 276 272 272 271 268 259 255 235 218 231 215 215 224 219 219 213 225 235 234 232 234 246 262 277 287 301 309 311 309 315 322 322
299 294 294 298 290 296 297 295 288 282 279 279 283 277 282 256 235 222 212 215 232 215 219 219 225 217 219 214 230 228 229 235 246 259 271 285 299 301 305 306 311 317 325
300 299 295 292 292 291 290 288 282 275 278 278 280 286 270 228 220 209 203 204 198 198 209 202 210 213 215 222 226 228 231 236 244 257 271 283 290 299 301 304 310 317 324
299 298 295 297 293 286 282 282 276 263 265 277 275 267 242 218 203 188 179 188 188 196 210 200 208 209 218 224 227 232 235 240 249 259 268 278 289 293 296 302 306 313 321